JIELONG 3 DEB, 62575

Orbit data source: Space-Track

JIELONG 3 DEB, 62575 is space debris in LEO originally from a launch on Mon, 13 Jan 2025 UTC launched from the Yellow Sea Launch Area, China (YSLA). Debris objects in space refer to the collection of defunct objects orbiting the Earth. Examples of debris include non-operational satellites, rocket bodies, and fragments generated from explosions, collisions, or faulty payload assembly.

Loading next visibility...
Identifier
62575, 2025-007A
Orbit
LEO
Country
Flag of CNCN / PRC
Related business
Manufacturer
Changzheng H.
Mission
Spacecraft
Bus & Motor
Unknown
Mass
~100 kg wet, ~100 kg dry
Launch date (UTC)
2025-01-13 (11 months ago)
Launch vehicle
Unknown
Launch site
Yellow Sea Launch Area, China (YSLA)
Object type
Payload
Rocket body
Debris
Shape & HBR
Cyl, 0.5 m
Radar Cross Section
2.062 m², Medium (>0.1 m² and < 1m²)

Expand to show TLE details & history
Last TLE update: 10 hours ago

TLE from 10 hours ago
0 JIELONG 3 DEB
1 62575U 25007A   25351.86375880  .00001162  00000-0  19805-3 0  9996
2 62575  54.9821 186.0717 0010658 333.2908  26.7541 14.75915590 49996
Epoch: 2025-12-17T20:43Z
TLE epoch observation values (Epoch: 2025-12-17T20:43:48.760Z)
Latitude
-0.00006°
Longitude
148.39098°
Altitude
636.634 km
Speed
7.544 km/s
True Right ascension
12h 24m 17s
True Declination
0° 00' 00"
Sunlit
Object was in daylight at epoch
Visualization orbit readout
Latitude
Unknown
Longitude
Unknown
Altitude
Unknown
Speed
Unknown
Apparent Right ascension
Unknown
Apparent Declination
Unknown
Sunlit
N/A
Visualization observer readout
Local Sidereal Time
05:33:00
Azimuth
Unknown
Elevation
Unknown
Doppler factor
Unknown
Orbital elements
Apogee altitude
649.695 km
Perigee altitude
634.73 km
Semi-major axis
7,020.35 km
Eccentricity
0.00107
Inclination
54.9821°
RAAN
186.0717°
Arg. of periapsis
333.2908°
True anomaly
26.80914°
Mean anomaly
26.7541°
Eccentric anomaly
26.78162°
Mean motion
3.68982 °/min
Orbital period
97.57 mins
BSTAR
0.00019805
Loading maneuver chart data...
Computing Atmospheric mass density...
Loading historical data...
Loading historical data...
Loading historical data...
Loading historical data...
Loading historical data...
Loading historical data...
Loading historical data...

Documentation

Showing up to 5 results
|